Time,TemperatureF,DewpointF,PressureIn,WindDirection,WindDirectionDegrees,WindSpeedMPH,WindSpeedGustMPH,Humidity,HourlyPrecipIn,Conditions,Clouds,dailyrainin,SoftwareType,DateUTC
2013-09-04 00:00:00,59.2,55.3,29.95,WNW,302,0.0,0.0,87,0.00,,---,0.00,VWS V14.01,2013-09-04 07:00:00,
2013-09-04 00:05:00,59.0,55.1,29.95,WNW,302,0.0,0.0,87,0.00,,---,0.00,VWS V14.01,2013-09-04 07:05:00,
2013-09-04 00:10:00,59.0,55.5,29.95,WNW,302,0.0,0.0,88,0.00,,---,0.00,VWS V14.01,2013-09-04 07:10:00,
2013-09-04 00:15:00,59.0,55.5,29.95,WNW,302,0.0,0.0,88,0.00,,---,0.00,VWS V14.01,2013-09-04 07:15:00,
2013-09-04 00:20:00,59.0,55.5,29.95,WNW,302,0.0,0.0,88,0.00,,---,0.00,VWS V14.01,2013-09-04 07:20:00,
2013-09-04 00:25:00,58.9,55.4,29.95,WNW,302,0.0,0.0,88,0.00,,---,0.00,VWS V14.01,2013-09-04 07:25:00,
2013-09-04 00:30:00,58.7,55.2,29.95,WNW,302,0.0,0.0,88,0.00,,---,0.00,VWS V14.01,2013-09-04 07:30:00,
2013-09-04 00:35:00,58.7,55.2,29.95,WNW,302,0.0,0.0,88,0.00,,---,0.00,VWS V14.01,2013-09-04 07:35:00,
2013-09-04 00:40:00,58.7,55.2,29.95,WNW,302,0.0,0.0,88,0.00,,---,0.00,VWS V14.01,2013-09-04 07:40:00,
2013-09-04 00:45:00,58.7,55.5,29.95,WNW,302,0.0,0.0,89,0.00,,---,0.00,VWS V14.01,2013-09-04 07:45:00,
2013-09-04 00:50:00,58.6,55.4,29.95,WNW,302,0.0,0.0,89,0.00,,---,0.00,VWS V14.01,2013-09-04 07:50:00,
2013-09-04 00:56:00,58.6,55.4,29.95,WNW,302,0.0,0.0,89,0.00,,---,0.00,VWS V14.01,2013-09-04 07:56:00,
2013-09-04 01:01:00,58.6,55.4,29.95,WNW,302,0.0,0.0,89,0.00,,---,0.00,VWS V14.01,2013-09-04 08:01:00,
2013-09-04 01:06:00,58.6,55.4,29.95,WNW,302,0.0,0.0,89,0.00,,---,0.00,VWS V14.01,2013-09-04 08:06:00,
2013-09-04 01:11:00,58.6,55.4,29.95,WNW,302,0.0,0.0,89,0.00,,---,0.00,VWS V14.01,2013-09-04 08:11:00,
2013-09-04 01:16:00,58.6,55.4,29.95,WNW,302,0.0,0.0,89,0.00,,---,0.00,VWS V14.01,2013-09-04 08:16:00,
2013-09-04 01:21:00,58.4,55.2,29.95,WNW,302,0.0,0.0,89,0.00,,---,0.00,VWS V14.01,2013-09-04 08:21:00,
2013-09-04 01:26:00,58.3,55.1,29.95,WNW,302,0.0,0.0,89,0.00,,---,0.00,VWS V14.01,2013-09-04 08:26:00,
2013-09-04 01:31:00,58.3,55.1,29.95,WNW,302,0.0,0.0,89,0.00,,---,0.00,VWS V14.01,2013-09-04 08:31:00,
2013-09-04 01:36:00,58.1,54.9,29.95,WNW,302,0.0,0.0,89,0.00,,---,0.00,VWS V14.01,2013-09-04 08:36:00,
2013-09-04 01:41:00,58.0,54.8,29.95,WNW,302,0.0,0.0,89,0.00,,---,0.00,VWS V14.01,2013-09-04 08:41:00,
2013-09-04 01:46:00,57.8,54.6,29.95,WNW,302,0.0,0.0,89,0.00,,---,0.00,VWS V14.01,2013-09-04 08:46:00,
2013-09-04 01:51:00,57.6,54.4,29.95,WNW,302,0.0,0.0,89,0.00,,---,0.00,VWS V14.01,2013-09-04 08:51:00,
2013-09-04 01:56:00,57.6,54.7,29.95,WNW,302,0.0,0.0,90,0.00,,---,0.00,VWS V14.01,2013-09-04 08:56:00,
2013-09-04 02:01:00,57.5,54.6,29.95,WNW,302,0.0,0.0,90,0.00,,---,0.00,VWS V14.01,2013-09-04 09:01:00,
2013-09-04 02:07:00,57.5,54.6,29.95,WNW,302,0.0,0.0,90,0.00,,---,0.00,VWS V14.01,2013-09-04 09:07:00,
2013-09-04 02:12:00,57.3,54.7,29.95,WNW,302,0.0,0.0,91,0.00,,---,0.00,VWS V14.01,2013-09-04 09:12:00,
2013-09-04 02:17:00,57.3,54.7,29.95,WNW,302,0.0,0.0,91,0.00,,---,0.00,VWS V14.01,2013-09-04 09:17:00,
2013-09-04 02:22:00,57.5,54.9,29.95,WNW,302,0.0,0.0,91,0.00,,---,0.00,VWS V14.01,2013-09-04 09:22:00,
2013-09-04 02:27:00,57.5,55.2,29.95,WNW,302,0.0,0.0,92,0.00,,---,0.00,VWS V14.01,2013-09-04 09:27:00,
2013-09-04 02:32:00,57.3,55.0,29.95,WNW,302,0.0,0.0,92,0.00,,---,0.00,VWS V14.01,2013-09-04 09:32:00,
2013-09-04 02:37:00,57.3,55.0,29.95,WNW,302,0.0,0.0,92,0.00,,---,0.00,VWS V14.01,2013-09-04 09:37:00,
2013-09-04 02:42:00,57.3,55.0,29.95,WNW,302,0.0,0.0,92,0.00,,---,0.00,VWS V14.01,2013-09-04 09:42:00,
2013-09-04 02:47:00,57.2,54.9,29.95,WNW,302,0.0,0.0,92,0.00,,---,0.00,VWS V14.01,2013-09-04 09:47:00,
2013-09-04 02:52:00,57.2,54.9,29.95,WNW,302,0.0,0.0,92,0.00,,---,0.00,VWS V14.01,2013-09-04 09:52:00,
2013-09-04 02:57:00,57.0,54.7,29.95,WNW,302,0.0,0.0,92,0.00,,---,0.00,VWS V14.01,2013-09-04 09:57:00,
2013-09-04 03:02:00,57.0,54.7,29.95,WNW,302,0.0,0.0,92,0.00,,---,0.00,VWS V14.01,2013-09-04 10:02:00,
2013-09-04 03:07:00,57.0,55.0,29.95,WNW,302,0.0,0.0,93,0.00,,---,0.00,VWS V14.01,2013-09-04 10:07:00,
2013-09-04 03:12:00,57.0,55.0,29.95,WNW,302,0.0,0.0,93,0.00,,---,0.00,VWS V14.01,2013-09-04 10:12:00,
2013-09-04 03:18:00,57.2,55.2,29.95,WNW,302,0.0,0.0,93,0.00,,---,0.00,VWS V14.01,2013-09-04 10:18:00,
2013-09-04 03:23:00,57.2,55.2,29.95,WNW,302,0.0,0.0,93,0.00,,---,0.00,VWS V14.01,2013-09-04 10:23:00,
2013-09-04 03:28:00,57.0,55.0,29.95,WNW,302,0.0,0.0,93,0.00,,---,0.00,VWS V14.01,2013-09-04 10:28:00,
2013-09-04 03:33:00,57.0,55.0,29.95,WNW,302,0.0,0.0,93,0.00,,---,0.00,VWS V14.01,2013-09-04 10:33:00,
2013-09-04 03:38:00,56.9,54.9,29.95,WNW,302,0.0,0.0,93,0.00,,---,0.00,VWS V14.01,2013-09-04 10:38:00,
2013-09-04 03:43:00,56.9,54.9,29.95,WNW,302,0.0,0.0,93,0.00,,---,0.00,VWS V14.01,2013-09-04 10:43:00,
2013-09-04 03:48:00,56.7,54.7,29.95,WNW,302,0.0,0.0,93,0.00,,---,0.00,VWS V14.01,2013-09-04 10:48:00,
2013-09-04 03:53:00,56.7,54.7,29.95,WNW,302,0.0,0.0,93,0.00,,---,0.00,VWS V14.01,2013-09-04 10:53:00,
2013-09-04 03:58:00,56.7,54.7,29.95,WNW,302,0.0,0.0,93,0.00,,---,0.00,VWS V14.01,2013-09-04 10:58:00,
2013-09-04 04:03:00,56.6,54.6,29.95,WNW,302,0.0,0.0,93,0.00,,---,0.00,VWS V14.01,2013-09-04 11:03:00,
2013-09-04 04:08:00,56.6,54.6,29.95,WNW,302,0.0,0.0,93,0.00,,---,0.00,VWS V14.01,2013-09-04 11:08:00,
2013-09-04 04:13:00,56.5,54.5,29.95,WNW,302,0.0,0.0,93,0.00,,---,0.00,VWS V14.01,2013-09-04 11:13:00,
2013-09-04 04:18:00,56.5,54.5,29.95,WNW,302,0.0,0.0,93,0.00,,---,0.00,VWS V14.01,2013-09-04 11:18:00,
2013-09-04 04:24:00,56.5,54.8,29.95,WNW,302,0.0,0.0,94,0.00,,---,0.00,VWS V14.01,2013-09-04 11:24:00,
2013-09-04 04:29:00,56.5,54.8,29.95,WNW,302,0.0,0.0,94,0.00,,---,0.00,VWS V14.01,2013-09-04 11:29:00,
2013-09-04 04:34:00,56.3,54.6,29.95,WNW,302,0.0,0.0,94,0.00,,---,0.00,VWS V14.01,2013-09-04 11:34:00,
2013-09-04 04:39:00,56.3,54.6,29.95,WNW,302,0.0,0.0,94,0.00,,---,0.00,VWS V14.01,2013-09-04 11:39:00,
2013-09-04 04:44:00,56.3,54.6,29.95,WNW,302,0.0,0.0,94,0.00,,---,0.00,VWS V14.01,2013-09-04 11:44:00,
2013-09-04 04:49:00,56.2,54.5,29.95,WNW,302,0.0,0.0,94,0.00,,---,0.00,VWS V14.01,2013-09-04 11:49:00,
2013-09-04 04:54:00,56.0,54.3,29.95,WNW,302,0.0,0.0,94,0.00,,---,0.00,VWS V14.01,2013-09-04 11:54:00,
2013-09-04 04:59:00,55.7,54.0,29.95,WNW,302,0.0,0.0,94,0.00,,---,0.00,VWS V14.01,2013-09-04 11:59:00,
2013-09-04 05:04:00,55.6,53.9,29.95,WNW,302,0.0,0.0,94,0.00,,---,0.00,VWS V14.01,2013-09-04 12:04:00,
2013-09-04 05:09:00,55.7,54.0,29.95,WNW,302,0.0,0.0,94,0.00,,---,0.00,VWS V14.01,2013-09-04 12:09:00,
2013-09-04 05:14:00,55.7,54.0,29.95,WNW,302,0.0,0.0,94,0.00,,---,0.00,VWS V14.01,2013-09-04 12:14:00,
2013-09-04 05:20:00,55.7,54.3,29.95,WNW,302,0.0,0.0,95,0.00,,---,0.00,VWS V14.01,2013-09-04 12:20:00,
2013-09-04 05:25:00,55.7,54.3,29.95,WNW,302,0.0,0.0,95,0.00,,---,0.00,VWS V14.01,2013-09-04 12:25:00,
2013-09-04 05:30:00,55.9,54.5,29.95,WNW,302,0.0,0.0,95,0.00,,---,0.00,VWS V14.01,2013-09-04 12:30:00,
2013-09-04 05:35:00,55.9,54.5,29.95,WNW,302,0.0,0.0,95,0.00,,---,0.00,VWS V14.01,2013-09-04 12:35:00,
2013-09-04 05:40:00,55.7,54.3,29.95,WNW,302,0.0,0.0,95,0.00,,---,0.00,VWS V14.01,2013-09-04 12:40:00,
2013-09-04 05:45:00,55.7,54.3,29.95,WNW,302,0.0,0.0,95,0.00,,---,0.00,VWS V14.01,2013-09-04 12:45:00,
2013-09-04 05:50:00,55.6,54.2,29.95,WNW,302,0.0,0.0,95,0.00,,---,0.00,VWS V14.01,2013-09-04 12:50:00,
2013-09-04 05:55:00,55.4,54.0,29.95,WNW,302,0.0,0.0,95,0.00,,---,0.00,VWS V14.01,2013-09-04 12:55:00,
2013-09-04 06:00:00,55.3,53.9,29.95,WNW,302,0.0,0.0,95,0.00,,---,0.00,VWS V14.01,2013-09-04 13:00:00,
2013-09-04 06:05:00,55.1,53.7,29.95,WNW,302,0.0,0.0,95,0.00,,---,0.00,VWS V14.01,2013-09-04 13:05:00,
2013-09-04 06:10:00,55.1,53.7,29.95,WNW,302,0.0,0.0,95,0.00,,---,0.00,VWS V14.01,2013-09-04 13:10:00,
2013-09-04 06:15:00,55.0,53.6,29.95,WNW,302,0.0,0.0,95,0.00,,---,0.00,VWS V14.01,2013-09-04 13:15:00,
2013-09-04 06:20:00,54.8,53.4,29.96,WNW,302,0.0,0.0,95,0.00,,---,0.00,VWS V14.01,2013-09-04 13:20:00,
2013-09-04 06:25:00,54.7,53.3,29.96,WNW,302,0.0,0.0,95,0.00,,---,0.00,VWS V14.01,2013-09-04 13:25:00,
2013-09-04 06:31:00,54.7,53.3,29.96,WNW,302,0.0,0.0,95,0.00,,---,0.00,VWS V14.01,2013-09-04 13:31:00,
2013-09-04 06:36:00,54.7,53.3,29.97,WNW,302,0.0,0.0,95,0.00,,---,0.00,VWS V14.01,2013-09-04 13:36:00,
2013-09-04 06:41:00,54.7,53.3,29.97,WNW,302,0.0,0.0,95,0.00,,---,0.00,VWS V14.01,2013-09-04 13:41:00,
2013-09-04 06:46:00,54.7,53.3,29.97,WNW,302,0.0,0.0,95,0.00,,---,0.00,VWS V14.01,2013-09-04 13:46:00,
2013-09-04 06:51:00,54.7,53.3,29.97,WNW,302,0.0,0.0,95,0.00,,---,0.00,VWS V14.01,2013-09-04 13:51:00,
2013-09-04 06:56:00,54.8,53.7,29.97,WNW,302,0.0,0.0,96,0.00,,---,0.00,VWS V14.01,2013-09-04 13:56:00,
2013-09-04 07:01:00,54.8,53.7,29.97,WNW,302,0.0,0.0,96,0.00,,---,0.00,VWS V14.01,2013-09-04 14:01:00,
2013-09-04 07:06:00,55.0,53.9,29.98,WNW,302,0.0,0.0,96,0.00,,---,0.00,VWS V14.01,2013-09-04 14:06:00,
2013-09-04 07:11:00,55.1,54.0,29.98,WNW,302,0.0,0.0,96,0.00,,---,0.00,VWS V14.01,2013-09-04 14:11:00,
2013-09-04 07:16:00,55.1,54.0,29.98,WNW,302,0.0,0.0,96,0.00,,---,0.00,VWS V14.01,2013-09-04 14:16:00,
2013-09-04 07:21:00,55.1,54.0,29.98,WNW,302,0.0,0.0,96,0.00,,---,0.00,VWS V14.01,2013-09-04 14:21:00,
2013-09-04 07:26:00,55.1,54.0,29.98,WNW,302,0.0,0.0,96,0.00,,---,0.00,VWS V14.01,2013-09-04 14:26:00,
2013-09-04 07:31:00,55.3,54.2,29.98,WNW,302,0.0,0.0,96,0.00,,---,0.00,VWS V14.01,2013-09-04 14:31:00,
2013-09-04 07:37:00,55.6,54.5,29.98,WNW,302,0.0,0.0,96,0.00,,---,0.00,VWS V14.01,2013-09-04 14:37:00,
2013-09-04 07:42:00,55.7,54.6,29.98,WNW,302,0.0,0.0,96,0.00,,---,0.00,VWS V14.01,2013-09-04 14:42:00,
2013-09-04 07:47:00,55.9,54.8,29.98,WNW,302,0.0,0.0,96,0.00,,---,0.00,VWS V14.01,2013-09-04 14:47:00,
2013-09-04 07:52:00,56.2,55.1,29.98,WNW,302,0.0,0.0,96,0.00,,---,0.00,VWS V14.01,2013-09-04 14:52:00,
2013-09-04 07:57:00,56.3,55.2,29.98,WNW,302,0.0,0.0,96,0.00,,---,0.00,VWS V14.01,2013-09-04 14:57:00,
2013-09-04 08:02:00,56.6,55.2,29.98,WNW,302,0.0,0.0,95,0.00,,---,0.00,VWS V14.01,2013-09-04 15:02:00,
2013-09-04 08:07:00,57.3,55.9,29.98,WNW,302,0.0,0.0,95,0.00,,---,0.00,VWS V14.01,2013-09-04 15:07:00,
2013-09-04 08:12:00,58.1,56.7,29.98,WNW,302,0.0,0.0,95,0.00,,---,0.00,VWS V14.01,2013-09-04 15:12:00,
2013-09-04 08:17:00,59.0,57.3,29.98,WNW,302,0.0,0.0,94,0.00,,---,0.00,VWS V14.01,2013-09-04 15:17:00,
2013-09-04 08:22:00,59.8,57.8,29.98,WNW,302,0.0,0.0,93,0.00,,---,0.00,VWS V14.01,2013-09-04 15:22:00,
2013-09-04 08:27:00,60.7,58.1,29.98,WNW,302,0.0,0.0,91,0.00,,---,0.00,VWS V14.01,2013-09-04 15:27:00,
2013-09-04 08:32:00,61.3,58.0,29.98,WNW,302,0.0,0.0,89,0.00,,---,0.00,VWS V14.01,2013-09-04 15:32:00,
2013-09-04 08:37:00,62.3,58.4,29.99,WNW,302,0.0,0.0,87,0.00,,---,0.00,VWS V14.01,2013-09-04 15:37:00,
2013-09-04 08:43:00,63.1,58.2,29.99,WNW,302,0.0,0.0,84,0.00,,---,0.00,VWS V14.01,2013-09-04 15:43:00,
2013-09-04 08:48:00,63.7,58.1,29.99,WNW,302,0.0,0.0,82,0.00,,---,0.00,VWS V14.01,2013-09-04 15:48:00,
2013-09-04 08:53:00,64.3,58.0,29.99,WNW,302,0.0,0.0,80,0.00,,---,0.00,VWS V14.01,2013-09-04 15:53:00,
2013-09-04 08:58:00,64.8,58.5,29.99,WNW,302,0.0,1.0,80,0.00,,---,0.00,VWS V14.01,2013-09-04 15:58:00,
2013-09-04 09:03:00,65.6,58.6,29.99,WNW,302,0.0,1.0,78,0.00,,---,0.00,VWS V14.01,2013-09-04 16:03:00,
2013-09-04 09:08:00,66.4,59.0,29.99,WNW,302,0.0,0.0,77,0.00,,---,0.00,VWS V14.01,2013-09-04 16:08:00,
2013-09-04 09:13:00,67.1,58.9,29.99,WNW,302,0.0,0.0,75,0.00,,---,0.00,VWS V14.01,2013-09-04 16:13:00,
2013-09-04 09:18:00,67.4,58.8,29.99,WNW,302,0.0,0.0,74,0.00,,---,0.00,VWS V14.01,2013-09-04 16:18:00,
2013-09-04 09:23:00,68.3,59.3,29.99,WNW,302,0.0,0.0,73,0.00,,---,0.00,VWS V14.01,2013-09-04 16:23:00,
2013-09-04 09:28:00,68.4,59.0,29.99,WNW,302,0.0,0.0,72,0.00,,---,0.00,VWS V14.01,2013-09-04 16:28:00,
2013-09-04 09:34:00,68.8,59.0,29.99,NW,319,0.0,0.0,71,0.00,,---,0.00,VWS V14.01,2013-09-04 16:34:00,
2013-09-04 09:39:00,69.1,59.3,30.00,NW,318,0.0,0.0,71,0.00,,---,0.00,VWS V14.01,2013-09-04 16:39:00,
2013-09-04 09:44:00,69.4,58.4,30.00,NNW,327,0.0,0.0,68,0.00,,---,0.00,VWS V14.01,2013-09-04 16:44:00,
2013-09-04 09:49:00,69.9,58.9,30.00,NNW,327,0.0,0.0,68,0.00,,---,0.00,VWS V14.01,2013-09-04 16:49:00,
2013-09-04 09:54:00,70.3,58.8,30.00,NNW,327,0.0,0.0,67,0.00,,---,0.00,VWS V14.01,2013-09-04 16:54:00,
2013-09-04 09:59:00,70.8,58.9,30.00,WNW,295,0.0,0.0,66,0.00,,---,0.00,VWS V14.01,2013-09-04 16:59:00,
2013-09-04 10:04:00,71.6,58.8,30.00,West,269,0.0,0.0,64,0.00,,---,0.00,VWS V14.01,2013-09-04 17:04:00,
2013-09-04 10:09:00,72.1,59.3,29.99,West,270,0.0,0.0,64,0.00,,---,0.00,VWS V14.01,2013-09-04 17:09:00,
2013-09-04 10:14:00,72.7,59.4,29.99,West,271,0.0,0.0,63,0.00,,---,0.00,VWS V14.01,2013-09-04 17:14:00,
2013-09-04 10:19:00,73.3,59.5,29.99,West,275,0.0,1.0,62,0.00,,---,0.00,VWS V14.01,2013-09-04 17:19:00,
2013-09-04 10:24:00,73.3,59.0,29.99,WNW,297,0.0,1.0,61,0.00,,---,0.00,VWS V14.01,2013-09-04 17:24:00,
2013-09-04 10:29:00,73.9,59.2,29.99,WNW,298,0.0,1.0,60,0.00,,---,0.00,VWS V14.01,2013-09-04 17:29:00,
2013-09-04 10:34:00,74.6,58.9,29.99,WNW,298,0.0,1.0,58,0.00,,---,0.00,VWS V14.01,2013-09-04 17:34:00,
2013-09-04 10:39:00,74.9,58.7,29.99,WNW,292,0.0,1.0,57,0.00,,---,0.00,VWS V14.01,2013-09-04 17:39:00,
2013-09-04 10:44:00,75.1,59.3,29.99,West,278,3.0,3.0,58,0.00,,---,0.00,VWS V14.01,2013-09-04 17:44:00,
2013-09-04 10:49:00,75.8,58.5,29.98,West,265,0.0,4.0,55,0.00,,---,0.00,VWS V14.01,2013-09-04 17:49:00,
2013-09-04 10:55:00,76.1,58.8,29.98,West,267,0.0,4.0,55,0.00,,---,0.00,VWS V14.01,2013-09-04 17:55:00,
2013-09-04 11:00:00,76.3,59.5,29.98,West,271,0.0,4.0,56,0.00,,---,0.00,VWS V14.01,2013-09-04 18:00:00,
2013-09-04 11:05:00,77.0,59.1,29.98,NNW,340,0.0,4.0,54,0.00,,---,0.00,VWS V14.01,2013-09-04 18:05:00,
2013-09-04 11:10:00,77.2,59.8,29.98,WNW,302,0.0,0.0,55,0.00,,---,0.00,VWS V14.01,2013-09-04 18:10:00,
2013-09-04 11:15:00,77.4,59.0,29.98,WNW,293,0.0,4.0,53,0.00,,---,0.00,VWS V14.01,2013-09-04 18:15:00,
2013-09-04 11:20:00,77.6,59.7,29.98,WNW,294,0.0,5.0,54,0.00,,---,0.00,VWS V14.01,2013-09-04 18:20:00,
2013-09-04 11:25:00,77.7,59.2,29.98,West,263,0.0,6.0,53,0.00,,---,0.00,VWS V14.01,2013-09-04 18:25:00,
2013-09-04 11:30:00,77.7,59.2,29.98,West,273,5.0,6.0,53,0.00,,---,0.00,VWS V14.01,2013-09-04 18:30:00,
2013-09-04 11:35:00,78.5,58.9,29.97,West,280,0.0,7.0,51,0.00,,---,0.00,VWS V14.01,2013-09-04 18:35:00,
2013-09-04 11:40:00,79.0,59.3,29.97,West,280,2.0,4.0,51,0.00,,---,0.00,VWS V14.01,2013-09-04 18:40:00,
2013-09-04 11:45:00,79.8,59.5,29.97,WNW,292,3.0,4.0,50,0.00,,---,0.00,VWS V14.01,2013-09-04 18:45:00,
2013-09-04 11:50:00,79.9,59.0,29.97,WNW,298,0.0,5.0,49,0.00,,---,0.00,VWS V14.01,2013-09-04 18:50:00,
2013-09-04 11:55:00,79.9,59.6,29.97,NW,314,0.0,5.0,50,0.00,,---,0.00,VWS V14.01,2013-09-04 18:55:00,
2013-09-04 12:00:00,79.8,60.1,29.97,West,271,0.0,6.0,51,0.00,,---,0.00,VWS V14.01,2013-09-04 19:00:00,
2013-09-04 12:05:00,79.2,60.1,29.97,West,263,0.0,8.0,52,0.00,,---,0.00,VWS V14.01,2013-09-04 19:05:00,
2013-09-04 12:10:00,79.4,60.8,29.97,WNW,286,0.0,10.0,53,0.00,,---,0.00,VWS V14.01,2013-09-04 19:10:00,
2013-09-04 12:15:00,79.9,59.6,29.97,WNW,289,4.0,10.0,50,0.00,,---,0.00,VWS V14.01,2013-09-04 19:15:00,
2013-09-04 12:20:00,79.9,59.6,29.97,WNW,292,3.0,10.0,50,0.00,,---,0.00,VWS V14.01,2013-09-04 19:20:00,
2013-09-04 12:25:00,79.6,59.3,29.97,WNW,282,3.0,10.0,50,0.00,,---,0.00,VWS V14.01,2013-09-04 19:25:00,
2013-09-04 12:30:00,79.8,59.5,29.97,WNW,302,0.0,10.0,50,0.00,,---,0.00,VWS V14.01,2013-09-04 19:30:00,
2013-09-04 12:36:00,79.9,59.0,29.97,SW,229,0.0,2.0,49,0.00,,---,0.00,VWS V14.01,2013-09-04 19:36:00,
2013-09-04 12:41:00,79.8,59.0,29.97,WNW,298,0.0,7.0,49,0.00,,---,0.00,VWS V14.01,2013-09-04 19:41:00,
2013-09-04 12:46:00,79.8,58.4,29.97,NW,310,0.0,7.0,48,0.00,,---,0.00,VWS V14.01,2013-09-04 19:46:00,
2013-09-04 12:51:00,79.9,58.5,29.96,West,275,0.0,7.0,48,0.00,,---,0.00,VWS V14.01,2013-09-04 19:51:00,
2013-09-04 12:56:00,80.1,58.7,29.96,WNW,282,0.0,7.0,48,0.00,,---,0.00,VWS V14.01,2013-09-04 19:56:00,
2013-09-04 13:01:00,80.1,58.1,29.96,WNW,292,0.0,7.0,47,0.00,,---,0.00,VWS V14.01,2013-09-04 20:01:00,
2013-09-04 13:06:00,80.1,58.1,29.96,WNW,286,4.0,4.0,47,0.00,,---,0.00,VWS V14.01,2013-09-04 20:06:00,
2013-09-04 13:11:00,80.7,58.0,29.96,WSW,239,0.0,4.0,46,0.00,,---,0.00,VWS V14.01,2013-09-04 20:11:00,
2013-09-04 13:16:00,81.1,57.8,29.96,NNW,337,0.0,4.0,45,0.00,,---,0.00,VWS V14.01,2013-09-04 20:16:00,
2013-09-04 13:21:00,81.2,57.9,29.95,WNW,285,2.0,4.0,45,0.00,,---,0.00,VWS V14.01,2013-09-04 20:21:00,
2013-09-04 13:26:00,81.4,57.4,29.95,NW,319,0.0,5.0,44,0.00,,---,0.00,VWS V14.01,2013-09-04 20:26:00,
2013-09-04 13:31:00,81.8,57.8,29.95,WNW,284,0.0,5.0,44,0.00,,---,0.00,VWS V14.01,2013-09-04 20:31:00,
2013-09-04 13:36:00,82.2,58.1,29.95,WSW,256,0.0,7.0,44,0.00,,---,0.00,VWS V14.01,2013-09-04 20:36:00,
2013-09-04 13:41:00,81.8,57.1,29.95,NNW,327,0.0,7.0,43,0.00,,---,0.00,VWS V14.01,2013-09-04 20:41:00,
2013-09-04 13:46:00,80.9,57.6,29.95,West,265,0.0,9.0,45,0.00,,---,0.00,VWS V14.01,2013-09-04 20:46:00,
2013-09-04 13:52:00,81.2,57.9,29.95,WNW,294,1.0,9.0,45,0.00,,---,0.00,VWS V14.01,2013-09-04 20:52:00,
2013-09-04 13:57:00,81.6,57.6,29.95,SW,235,5.0,9.0,44,0.00,,---,0.00,VWS V14.01,2013-09-04 20:57:00,
2013-09-04 14:02:00,81.8,57.8,29.95,SSW,213,2.0,10.0,44,0.00,,---,0.00,VWS V14.01,2013-09-04 21:02:00,
2013-09-04 14:07:00,81.4,57.4,29.95,WNW,285,0.0,3.0,44,0.00,,---,0.00,VWS V14.01,2013-09-04 21:07:00,
2013-09-04 14:12:00,81.4,56.8,29.95,SW,230,0.0,9.0,43,0.00,,---,0.00,VWS V14.01,2013-09-04 21:12:00,
2013-09-04 14:17:00,81.1,57.2,29.95,West,261,1.0,9.0,44,0.00,,---,0.00,VWS V14.01,2013-09-04 21:17:00,
2013-09-04 14:22:00,80.9,57.0,29.95,West,269,0.0,9.0,44,0.00,,---,0.00,VWS V14.01,2013-09-04 21:22:00,
2013-09-04 14:27:00,80.9,57.0,29.95,SW,215,0.0,9.0,44,0.00,,---,0.00,VWS V14.01,2013-09-04 21:27:00,
2013-09-04 14:32:00,80.1,57.0,29.95,SSW,204,0.0,-999.0,46,-99.99,,,0.00,weatherlink.com 1.10,2013-09-04 21:32:00,
2013-09-04 14:37:00,80.5,56.6,29.94,West,259,0.0,0.0,44,0.00,,---,0.00,VWS V14.01,2013-09-04 21:37:00,
2013-09-04 14:42:00,81.2,57.2,29.94,SW,229,0.0,7.0,44,0.00,,---,0.00,VWS V14.01,2013-09-04 21:42:00,
2013-09-04 14:47:00,81.1,57.8,29.94,West,264,0.0,7.0,45,0.00,,---,0.00,VWS V14.01,2013-09-04 21:47:00,
2013-09-04 14:52:00,81.4,57.4,29.94,WSW,248,3.0,7.0,44,0.00,,---,0.00,VWS V14.01,2013-09-04 21:52:00,
2013-09-04 14:57:00,81.2,57.2,29.94,SSW,202,1.0,7.0,44,0.00,,---,0.00,VWS V14.01,2013-09-04 21:57:00,
2013-09-04 15:03:00,80.9,57.6,29.94,SW,215,1.0,7.0,45,0.00,,---,0.00,VWS V14.01,2013-09-04 22:03:00,
2013-09-04 15:08:00,80.9,57.0,29.93,WSW,240,0.0,5.0,44,0.00,,---,0.00,VWS V14.01,2013-09-04 22:08:00,
2013-09-04 15:13:00,80.7,56.2,29.93,SSW,199,1.0,7.0,43,0.00,,---,0.00,VWS V14.01,2013-09-04 22:13:00,
2013-09-04 15:18:00,80.7,56.8,29.93,WNW,289,0.0,7.0,44,0.00,,---,0.00,VWS V14.01,2013-09-04 22:18:00,
2013-09-04 15:23:00,81.2,56.6,29.93,WSW,238,2.0,10.0,43,0.00,,---,0.00,VWS V14.01,2013-09-04 22:23:00,
2013-09-04 15:28:00,80.9,56.3,29.93,SW,229,7.0,11.0,43,0.00,,---,0.00,VWS V14.01,2013-09-04 22:28:00,
2013-09-04 15:33:00,80.3,56.4,29.93,WSW,240,6.0,11.0,44,0.00,,---,0.00,VWS V14.01,2013-09-04 22:33:00,
2013-09-04 15:38:00,80.9,55.7,29.93,SSW,202,0.0,9.0,42,0.00,,---,0.00,VWS V14.01,2013-09-04 22:38:00,
2013-09-04 15:43:00,80.9,56.3,29.93,West,264,0.0,9.0,43,0.00,,---,0.00,VWS V14.01,2013-09-04 22:43:00,
2013-09-04 15:48:00,80.7,56.2,29.93,NNW,342,0.0,9.0,43,0.00,,---,0.00,VWS V14.01,2013-09-04 22:48:00,
2013-09-04 15:53:00,80.7,56.2,29.92,West,275,0.0,9.0,43,0.00,,---,0.00,VWS V14.01,2013-09-04 22:53:00,
2013-09-04 15:58:00,80.9,57.0,29.92,WSW,254,4.0,9.0,44,0.00,,---,0.00,VWS V14.01,2013-09-04 22:58:00,
2013-09-04 16:03:00,80.9,57.0,29.92,WSW,240,6.0,9.0,44,0.00,,---,0.00,VWS V14.01,2013-09-04 23:03:00,
2013-09-04 16:09:00,81.1,56.5,29.92,SW,215,0.0,10.0,43,0.00,,---,0.00,VWS V14.01,2013-09-04 23:09:00,
2013-09-04 16:14:00,80.9,56.3,29.92,WSW,251,0.0,10.0,43,0.00,,---,0.00,VWS V14.01,2013-09-04 23:14:00,
2013-09-04 16:19:00,80.9,56.3,29.92,WSW,242,0.0,10.0,43,0.00,,---,0.00,VWS V14.01,2013-09-04 23:19:00,
2013-09-04 16:24:00,81.1,55.9,29.92,West,276,6.0,10.0,42,0.00,,---,0.00,VWS V14.01,2013-09-04 23:24:00,
2013-09-04 16:29:00,81.1,55.2,29.92,SSW,209,0.0,10.0,41,0.00,,---,0.00,VWS V14.01,2013-09-04 23:29:00,
2013-09-04 16:34:00,80.1,55.6,29.92,WSW,237,1.0,10.0,43,0.00,,---,0.00,VWS V14.01,2013-09-04 23:34:00,
2013-09-04 16:39:00,80.1,55.6,29.91,SW,214,0.0,3.0,43,0.00,,---,0.00,VWS V14.01,2013-09-04 23:39:00,
2013-09-04 16:44:00,80.1,55.6,29.91,West,267,0.0,8.0,43,0.00,,---,0.00,VWS V14.01,2013-09-04 23:44:00,
2013-09-04 16:49:00,80.1,56.2,29.91,West,264,0.0,8.0,44,0.00,,---,0.00,VWS V14.01,2013-09-04 23:49:00,
2013-09-04 16:54:00,80.1,56.2,29.91,SSW,207,0.0,8.0,44,0.00,,---,0.00,VWS V14.01,2013-09-04 23:54:00,
2013-09-04 16:59:00,80.3,56.4,29.91,SW,220,1.0,8.0,44,0.00,,---,0.00,VWS V14.01,2013-09-04 23:59:00,
2013-09-04 17:04:00,80.3,55.8,29.91,South,187,3.0,8.0,43,0.00,,---,0.00,VWS V14.01,2013-09-05 00:04:00,
2013-09-04 17:09:00,79.8,56.0,29.91,West,260,5.0,8.0,44,0.00,,---,0.00,VWS V14.01,2013-09-05 00:09:00,
2013-09-04 17:15:00,79.6,56.4,29.91,WSW,254,1.0,8.0,45,0.00,,---,0.00,VWS V14.01,2013-09-05 00:15:00,
2013-09-04 17:20:00,79.4,55.6,29.91,South,188,5.0,8.0,44,0.00,,---,0.00,VWS V14.01,2013-09-05 00:20:00,
2013-09-04 17:25:00,79.2,56.0,29.91,SW,221,5.0,8.0,45,0.00,,---,0.00,VWS V14.01,2013-09-05 00:25:00,
2013-09-04 17:30:00,79.0,56.5,29.91,SW,215,0.0,8.0,46,0.00,,---,0.00,VWS V14.01,2013-09-05 00:30:00,
2013-09-04 17:35:00,78.6,56.1,29.91,South,185,0.0,8.0,46,0.00,,---,0.00,VWS V14.01,2013-09-05 00:35:00,
2013-09-04 17:40:00,78.1,56.2,29.91,SSW,204,1.0,6.0,47,0.00,,---,0.00,VWS V14.01,2013-09-05 00:40:00,
2013-09-04 17:45:00,77.6,57.5,29.91,SW,229,4.0,11.0,50,0.00,,---,0.00,VWS V14.01,2013-09-05 00:45:00,
2013-09-04 17:50:00,77.4,57.9,29.91,SE,146,0.0,11.0,51,0.00,,---,0.00,VWS V14.01,2013-09-05 00:50:00,
2013-09-04 17:55:00,77.4,58.4,29.91,South,178,0.0,11.0,52,0.00,,---,0.00,VWS V14.01,2013-09-05 00:55:00,
2013-09-04 18:00:00,76.8,58.4,29.91,SSE,156,0.0,11.0,53,0.00,,---,0.00,VWS V14.01,2013-09-05 01:00:00,
2013-09-04 18:06:00,76.3,59.0,29.91,SE,136,0.0,2.0,55,0.00,,---,0.00,VWS V14.01,2013-09-05 01:06:00,
2013-09-04 18:11:00,75.8,59.0,29.91,SE,138,0.0,6.0,56,0.00,,---,0.00,VWS V14.01,2013-09-05 01:11:00,
2013-09-04 18:16:00,75.3,59.0,29.91,SSE,155,0.0,7.0,57,0.00,,---,0.00,VWS V14.01,2013-09-05 01:16:00,
2013-09-04 18:21:00,74.6,59.3,29.91,SSW,199,1.0,7.0,59,0.00,,---,0.00,VWS V14.01,2013-09-05 01:21:00,
2013-09-04 18:26:00,73.9,58.7,29.91,SW,232,3.0,8.0,59,0.00,,---,0.00,VWS V14.01,2013-09-05 01:26:00,
2013-09-04 18:31:00,73.2,59.0,29.91,South,178,0.0,11.0,61,0.00,,---,0.00,VWS V14.01,2013-09-05 01:31:00,
2013-09-04 18:36:00,72.7,58.5,29.91,SW,232,6.0,7.0,61,0.00,,---,0.00,VWS V14.01,2013-09-05 01:36:00,
2013-09-04 18:41:00,72.1,58.4,29.91,South,173,0.0,7.0,62,0.00,,---,0.00,VWS V14.01,2013-09-05 01:41:00,
2013-09-04 18:46:00,71.8,58.5,29.91,SSW,194,0.0,7.0,63,0.00,,---,0.00,VWS V14.01,2013-09-05 01:46:00,
2013-09-04 18:51:00,71.3,58.5,29.92,SSW,192,1.0,13.0,64,0.00,,---,0.00,VWS V14.01,2013-09-05 01:51:00,
2013-09-04 18:56:00,70.9,58.6,29.92,SW,217,4.0,13.0,65,0.00,,---,0.00,VWS V14.01,2013-09-05 01:56:00,
2013-09-04 19:01:00,70.4,58.1,29.92,SW,228,0.0,13.0,65,0.00,,---,0.00,VWS V14.01,2013-09-05 02:01:00,
2013-09-04 19:06:00,70.1,58.2,29.91,South,175,0.0,4.0,66,0.00,,---,0.00,VWS V14.01,2013-09-05 02:06:00,
2013-09-04 19:11:00,69.4,58.0,29.91,South,169,9.0,13.0,67,0.00,,---,0.00,VWS V14.01,2013-09-05 02:11:00,
2013-09-04 19:17:00,68.8,57.8,29.91,WSW,257,6.0,13.0,68,0.00,,---,0.00,VWS V14.01,2013-09-05 02:17:00,
2013-09-04 19:22:00,68.3,58.2,29.91,SSW,207,5.0,13.0,70,0.00,,---,0.00,VWS V14.01,2013-09-05 02:22:00,
2013-09-04 19:27:00,67.9,57.8,29.91,South,174,5.0,13.0,70,0.00,,---,0.00,VWS V14.01,2013-09-05 02:27:00,
2013-09-04 19:32:00,67.6,57.9,29.91,SE,126,2.0,13.0,71,0.00,,---,0.00,VWS V14.01,2013-09-05 02:32:00,
2013-09-04 19:37:00,67.1,57.8,29.92,SSW,212,1.0,6.0,72,0.00,,---,0.00,VWS V14.01,2013-09-05 02:37:00,
2013-09-04 19:42:00,66.9,57.6,29.92,South,169,7.0,13.0,72,0.00,,---,0.00,VWS V14.01,2013-09-05 02:42:00,
2013-09-04 19:47:00,66.4,57.5,29.92,SSE,163,1.0,13.0,73,0.00,,---,0.00,VWS V14.01,2013-09-05 02:47:00,
2013-09-04 19:52:00,66.1,57.6,29.92,SSE,163,8.0,13.0,74,0.00,,---,0.00,VWS V14.01,2013-09-05 02:52:00,
2013-09-04 19:57:00,65.8,57.7,29.92,SW,215,7.0,13.0,75,0.00,,---,0.00,VWS V14.01,2013-09-05 02:57:00,
2013-09-04 20:02:00,65.5,57.4,29.92,SSW,206,4.0,13.0,75,0.00,,---,0.00,VWS V14.01,2013-09-05 03:02:00,
2013-09-04 20:07:00,65.3,57.5,29.92,SW,216,5.0,8.0,76,0.00,,---,0.00,VWS V14.01,2013-09-05 03:07:00,
2013-09-04 20:12:00,65.0,57.6,29.92,SSE,167,8.0,10.0,77,0.00,,---,0.00,VWS V14.01,2013-09-05 03:12:00,
2013-09-04 20:17:00,64.8,57.4,29.92,South,178,0.0,10.0,77,0.00,,---,0.00,VWS V14.01,2013-09-05 03:17:00,
2013-09-04 20:23:00,64.7,58.4,29.92,South,172,0.0,10.0,80,0.00,,---,0.00,VWS V14.01,2013-09-05 03:23:00,
2013-09-04 20:28:00,64.5,57.1,29.92,South,189,0.0,10.0,77,0.00,,---,0.00,VWS V14.01,2013-09-05 03:28:00,
2013-09-04 20:33:00,64.5,57.1,29.92,South,170,6.0,10.0,77,0.00,,---,0.00,VWS V14.01,2013-09-05 03:33:00,
2013-09-04 20:38:00,64.5,57.1,29.92,SSW,205,3.0,6.0,77,0.00,,---,0.00,VWS V14.01,2013-09-05 03:38:00,
2013-09-04 20:43:00,64.3,57.0,29.92,SSW,207,3.0,7.0,77,0.00,,---,0.00,VWS V14.01,2013-09-05 03:43:00,
2013-09-04 20:48:00,64.3,57.0,29.92,South,182,0.0,7.0,77,0.00,,---,0.00,VWS V14.01,2013-09-05 03:48:00,
2013-09-04 20:53:00,64.3,57.0,29.92,South,175,0.0,8.0,77,0.00,,---,0.00,VWS V14.01,2013-09-05 03:53:00,
2013-09-04 20:58:00,64.3,57.0,29.92,South,182,6.0,8.0,77,0.00,,---,0.00,VWS V14.01,2013-09-05 03:58:00,
2013-09-04 21:01:00,64.3,57.0,29.92,South,186,0.0,8.0,77,0.00,,---,0.00,VWS V14.01,2013-09-05 04:01:00,
2013-09-04 21:02:00,64.3,57.0,29.92,SSE,163,4.0,8.0,77,0.00,,---,0.00,VWS V14.01,2013-09-05 04:02:00,
2013-09-04 21:03:00,64.2,57.2,29.92,SSE,161,6.0,8.0,78,0.00,,---,0.00,VWS V14.01,2013-09-05 04:03:00,
2013-09-04 21:04:00,64.2,57.2,29.92,SSE,167,0.0,8.0,78,0.00,,---,0.00,VWS V14.01,2013-09-05 04:04:00,
2013-09-04 21:07:00,64.2,57.0,29.92,South,190,6.0,-999.0,78,-99.99,,,0.00,weatherlink.com 1.10,2013-09-05 04:07:00,
2013-09-04 21:12:00,64.0,57.0,29.92,South,186,0.0,10.0,78,0.00,,---,0.00,VWS V14.01,2013-09-05 04:12:00,
2013-09-04 21:17:00,64.0,57.0,29.92,South,190,0.0,10.0,78,0.00,,---,0.00,VWS V14.01,2013-09-05 04:17:00,
2013-09-04 21:22:00,64.0,57.0,29.94,SSW,213,0.0,10.0,78,0.00,,---,0.00,VWS V14.01,2013-09-05 04:22:00,
2013-09-04 21:27:00,63.9,56.9,29.94,SSW,213,0.0,10.0,78,0.00,,---,0.00,VWS V14.01,2013-09-05 04:27:00,
2013-09-04 21:32:00,63.9,57.3,29.94,SSW,213,0.0,10.0,79,0.00,,---,0.00,VWS V14.01,2013-09-05 04:32:00,
2013-09-04 21:37:00,63.7,57.1,29.95,SSW,213,0.0,0.0,79,0.00,,---,0.00,VWS V14.01,2013-09-05 04:37:00,
2013-09-04 21:42:00,63.5,56.9,29.95,SSW,213,0.0,0.0,79,0.00,,---,0.00,VWS V14.01,2013-09-05 04:42:00,
2013-09-04 21:47:00,63.4,57.1,29.95,SSW,213,0.0,0.0,80,0.00,,---,0.00,VWS V14.01,2013-09-05 04:47:00,
2013-09-04 21:52:00,63.2,56.9,29.95,SSW,213,0.0,0.0,80,0.00,,---,0.00,VWS V14.01,2013-09-05 04:52:00,
2013-09-04 21:57:00,62.9,56.6,29.95,SSW,213,0.0,0.0,80,0.00,,---,0.00,VWS V14.01,2013-09-05 04:57:00,
2013-09-04 22:02:00,62.6,56.7,29.95,SSW,213,0.0,0.0,81,0.00,,---,0.00,VWS V14.01,2013-09-05 05:02:00,
2013-09-04 22:08:00,62.3,56.4,29.95,SSW,213,0.0,0.0,81,0.00,,---,0.00,VWS V14.01,2013-09-05 05:08:00,
2013-09-04 22:13:00,62.0,56.5,29.95,SSW,213,0.0,0.0,82,0.00,,---,0.00,VWS V14.01,2013-09-05 05:13:00,
2013-09-04 22:18:00,61.6,56.4,29.95,SSW,213,0.0,0.0,83,0.00,,---,0.00,VWS V14.01,2013-09-05 05:18:00,
2013-09-04 22:23:00,61.5,56.3,29.96,SSW,213,0.0,0.0,83,0.00,,---,0.00,VWS V14.01,2013-09-05 05:23:00,
2013-09-04 22:28:00,61.3,56.1,29.96,SW,214,0.0,0.0,83,0.00,,---,0.00,VWS V14.01,2013-09-05 05:28:00,
2013-09-04 22:33:00,61.2,56.3,29.96,SSW,213,0.0,0.0,84,0.00,,---,0.00,VWS V14.01,2013-09-05 05:33:00,
2013-09-04 22:38:00,61.2,56.3,29.96,SSW,213,0.0,0.0,84,0.00,,---,0.00,VWS V14.01,2013-09-05 05:38:00,
2013-09-04 22:43:00,61.0,56.1,29.96,SSW,213,0.0,0.0,84,0.00,,---,0.00,VWS V14.01,2013-09-05 05:43:00,
2013-09-04 22:48:00,60.9,56.0,29.96,SSW,213,0.0,0.0,84,0.00,,---,0.00,VWS V14.01,2013-09-05 05:48:00,
2013-09-04 22:53:00,60.7,56.2,29.96,SSW,213,0.0,0.0,85,0.00,,---,0.00,VWS V14.01,2013-09-05 05:53:00,
2013-09-04 22:59:00,60.7,56.2,29.96,SSW,213,0.0,0.0,85,0.00,,---,0.00,VWS V14.01,2013-09-05 05:59:00,
2013-09-04 23:04:00,60.5,56.0,29.96,SSW,213,0.0,0.0,85,0.00,,---,0.00,VWS V14.01,2013-09-05 06:04:00,
2013-09-04 23:09:00,60.4,55.9,29.96,SSW,213,0.0,0.0,85,0.00,,---,0.00,VWS V14.01,2013-09-05 06:09:00,
2013-09-04 23:14:00,60.4,55.9,29.96,SSW,213,0.0,0.0,85,0.00,,---,0.00,VWS V14.01,2013-09-05 06:14:00,
2013-09-04 23:19:00,60.2,56.0,29.96,SSW,213,0.0,0.0,86,0.00,,---,0.00,VWS V14.01,2013-09-05 06:19:00,
2013-09-04 23:24:00,60.1,55.9,29.96,SSW,213,0.0,0.0,86,0.00,,---,0.00,VWS V14.01,2013-09-05 06:24:00,
2013-09-04 23:29:00,59.8,55.6,29.96,SSW,213,0.0,0.0,86,0.00,,---,0.00,VWS V14.01,2013-09-05 06:29:00,
2013-09-04 23:34:00,59.6,55.4,29.96,SSW,213,0.0,0.0,86,0.00,,---,0.00,VWS V14.01,2013-09-05 06:34:00,
2013-09-04 23:39:00,59.5,55.3,29.97,SSW,213,0.0,0.0,86,0.00,,---,0.00,VWS V14.01,2013-09-05 06:39:00,
2013-09-04 23:44:00,59.3,55.4,29.97,SSW,213,0.0,0.0,87,0.00,,---,0.00,VWS V14.01,2013-09-05 06:44:00,
2013-09-04 23:49:00,59.2,55.3,29.97,SSW,213,0.0,0.0,87,0.00,,---,0.00,VWS V14.01,2013-09-05 06:49:00,
2013-09-04 23:54:00,59.0,55.1,29.97,SSW,213,0.0,0.0,87,0.00,,---,0.00,VWS V14.01,2013-09-05 06:54:00,
2013-09-04 23:59:00,58.9,55.0,29.97,SSW,213,0.0,0.0,87,0.00,,---,0.00,VWS V14.01,2013-09-05 06:59:00,